User: anonymous   Login
Location: Gwatt
(46.7204°N, 7.6223°E)
Time: 23:46:07
(UTC+00:00)
Language:

Courier 1B Rocket - Orbit

View from above orbital plane
View from above orbital plane
View from above satellite
View from above satellite

Ground track
Ground track

The orbit data is extracted from the following two-line orbital elements,

1 00059U 60013B   21129.59415706  .00000118  00000-0  39430-4 0  9999
2 00059  28.2499 342.8843 0189178 143.6153 217.7414 13.52984613990566
Epoch (UTC): 09 May 2021 14:15:35
Eccentricity: 0.0189178
inclination: 28.2499°
perigee height: 920 km
apogee height: 1202 km
right ascension of ascending node: 342.8843°
argument of perigee: 143.6153°
revolutions per day: 13.52984613
mean anomaly at epoch: 217.7414°
orbit number at epoch: 99056

The dashed part of the orbit path shows where the satellite is in the earth's shadow,  

DLR